Location: Perryvale
(54.4667°N, 113.3833°W)
Time: 19:39:56
(UTC+00:00)

Vanguard 1 Rocket - Pass Details

Date: 18 May 2024
Orbit: 649 x 4220 km, 34.3° (Epoch: 19 June)

Event Time Altitude Azimuth Distance (km) Brightness Sun altitude
Rises 16:13:37 0° 202° (SSW) 7,817 12.2 39.3°
Reaches altitude 10° 16:22:39 10° 185° (S) 6,087 11.9 40.5°
Maximum altitude 16:31:03 15° 157° (SSE) 4,773 11.9 41.6°
Drops below altitude 10° 16:37:29 10° 126° (SE) 4,461 12.0 42.4°
Sets 16:42:13 0° 105° (ESE) 4,844 11.9 43.0°
